[[{"header":{"parameterUnit":"m.s-1","parameterCategory":1,"la1":30.2991,"la2":30.254,"lo1":-89.0895,"lo2":-89.0444,"dy":0.0017,"dx":0.0017,"nx":28,"ny":28,"refTime":"2024-11-24T09:00:00:Z","depth":0,"parameterNumber":2,"parameterNumberName":"U-component_of_WINDS"},"data":[0,0,0,0,0,0,0,0,0,0,0,0,0,0,0,0,0,0,0,0,0,0,0,0,0,0,0,0,0,0,0,0,0,0,0,0,0,0,0,0,0,0,0,0,0,0,0,0,0,0,0,0,0,0,0,0,0,0,-2.6918,-2.692,0,-2.7057,-2.7058,-2.706,-2.711,-2.711,-2.7109,-2.7109,-2.7251,-2.7255,-2.7259,0,0,0,0,0,0,0,0,0,0,0,0,0,-2.6698,-2.6702,-2.6918,-2.692,-2.6922,-2.7056,-2.7058,-2.706,-2.711,-2.711,-2.7109,-2.7109,-2.7249,-2.7254,-2.7259,0,0,0,0,0,0,0,0,0,0,0,0,0,-2.681,-2.6703,-2.6918,-2.6963,-2.6968,-2.7056,-2.7058,-2.7061,-2.7111,-2.711,-2.7109,-2.7108,-2.7248,-2.7254,-2.726,-2.7313,0,0,-2.7279,-2.7282,0,0,0,0,0,0,0,0,-2.6804,-2.6818,-2.6955,-2.696,-2.6966,-2.7065,-2.7033,-2.7145,-2.7111,-2.7057,-2.7109,-2.7108,-2.719,-2.7201,-2.7228,-2.732,-2.7326,-2.728,-2.7284,-2.7287,-2.7288,0,0,0,0,0,0,0,-2.6796,-2.6813,-2.6973,-2.6957,-2.6964,-2.6976,-2.6992,-2.7054,-2.7125,-2.7061,-2.7065,-2.7081,-2.7193,-2.7222,-2.7232,-2.7328,-2.728,-2.7285,-2.7289,-2.7292,-2.7469,-2.747,0,0,0,0,0,0,-2.6781,-2.6806,-2.6969,-2.6977,-2.6882,-2.6981,-2.6998,-2.7034,-2.7125,-2.7138,-2.7081,-2.7083,-2.7212,-2.7225,-2.7237,-2.7304,-2.7286,-2.7292,-2.7296,-2.7468,-2.7469,-2.747,0,0,0,0,0,0,-2.6776,-2.6795,-2.6963,-2.6893,-2.6915,-2.6985,-2.7026,-2.7037,-2.7067,-2.714,-2.7153,-2.7098,-2.7212,-2.7228,-2.7294,-2.731,-2.7295,-2.7301,-2.7467,-2.7468,-2.7469,-2.7439,0,0,0,0,0,0,-2.6769,-2.6793,-2.6814,-2.6893,-2.6919,-2.7017,-2.7027,-2.7041,-2.7077,-2.7081,-2.7159,-2.7172,-2.7212,-2.7284,-2.73,-2.7318,-2.7306,-2.7466,-2.7467,-2.7469,-2.7439,-2.7439,-2.7439,0,0,0,0,0,-2.6761,-2.68,-2.6814,-2.6834,-2.6946,-2.7018,-2.7033,-2.7079,-2.7079,-2.71,-2.7147,-2.7169,-2.7306,-2.729,-2.7309,-2.7329,-2.7465,-2.7467,-2.7469,-2.7439,-2.7439,-2.7439,0,0,0,0,0,0,-2.6721,-2.6811,-2.6828,-2.6894,-2.6948,-2.7026,-2.7055,-2.7078,-2.7133,-2.7134,-2.7189,-2.7206,-2.7267,-2.7305,-2.7286,-2.7385,-2.7387,-2.7392,-2.7357,-2.7358,-2.7359,-2.7348,-2.7311,0,0,0,0,0,-2.672,-2.677,-2.6847,-2.6897,-2.6923,-2.6984,-2.7017,-2.7048,-2.7106,-2.7129,-2.7181,-2.7237,-2.7292,-2.7328,-2.7383,-2.7445,-2.7462,-2.7468,-2.7468,-2.7468,-2.7472,-2.7507,-2.751,-2.7477,-2.7477,-2.7477,0,0,-2.6718,-2.6773,-2.6802,-2.689,-2.6936,-2.6987,-2.7003,-2.7057,-2.7095,-2.7137,-2.7202,-2.7242,-2.7308,-2.7371,-2.7402,-2.7405,-2.7486,-2.7471,-2.747,-2.7475,-2.751,-2.7513,-2.7515,-2.7478,-2.7478,-2.7478,0,0,-2.674,-2.6787,-2.6834,-2.6879,-2.6947,-2.6988,-2.6999,-2.7074,-2.7102,-2.7167,-2.72,-2.7247,-2.7341,-2.7386,-2.7422,-2.746,-2.7482,-2.7477,-2.7478,-2.7511,-2.7514,-2.7516,-2.7529,-2.7533,-2.7481,-2.7481,-2.7481,0,-2.6729,-2.6807,-2.6855,-2.6906,-2.6944,-2.6985,-2.7032,-2.7073,-2.7156,-2.7181,-2.7183,-2.7302,-2.735,-2.7424,-2.7433,-2.7461,-2.7475,-2.7468,-2.751,-2.7513,-2.7516,-2.7529,-2.7533,-2.7479,-2.748,-2.748,-2.748,0,-2.6789,-2.6842,-2.6872,-2.695,-2.6991,-2.704,-2.7096,-2.7132,-2.7159,-2.7198,-2.7264,-2.7322,-2.739,-2.741,-2.7437,-2.7488,-2.7487,-2.7499,-2.7502,-2.7517,-2.753,-2.7535,-2.7478,-2.7478,-2.7479,-2.7479,0,0,-2.679,-2.6893,-2.6903,-2.6939,-2.7017,-2.7059,-2.711,-2.7176,-2.7205,-2.7261,-2.7304,-2.7383,-2.7394,-2.7434,-2.7467,-2.7496,-2.7521,-2.7504,-2.7506,-2.7504,-2.758,-2.757,-2.7575,-2.7537,-2.7538,-2.7539,-2.7574,0,-2.6821,-2.6913,-2.6958,-2.703,-2.708,-2.7119,-2.7163,-2.7215,-2.7254,-2.7302,-2.7345,-2.7399,-2.741,-2.7434,-2.7465,-2.7512,-2.7537,-2.751,-2.7577,-2.7579,-2.7559,-2.7582,-2.7572,-2.7603,-2.758,-2.7581,-2.7581,0,-2.687,-2.6925,-2.7002,-2.7073,-2.7096,-2.7135,-2.7198,-2.7243,-2.7303,-2.7329,-2.7374,-2.7405,-2.746,-2.7459,-2.7535,-2.7516,-2.7546,-2.7573,-2.7575,-2.7583,-2.758,-2.7589,-2.7614,-2.7618,-2.759,-2.7589,-2.7589,0,-2.6861,-2.6954,-2.7012,-2.7042,-2.7127,-2.7153,-2.719,-2.725,-2.7286,-2.7341,-2.7365,-2.7426,-2.7459,-2.7506,-2.7553,-2.7548,-2.7624,-2.7628,-2.7647,-2.7645,-2.766,-2.7659,-2.7689,-2.7681,-2.7681,-2.7681,-2.7681,0,-2.6891,-2.6936,-2.7009,-2.7045,-2.7097,-2.7148,-2.7198,-2.7237,-2.729,-2.7334,-2.7372,-2.7412,-2.7473,-2.7521,-2.7558,-2.7615,-2.763,-2.7652,-2.7661,-2.7648,-2.7645,-2.7668,-2.7667,-2.7682,-2.7682,-2.7682,-2.7682,0,-2.689,-2.694,-2.7006,-2.7081,-2.7101,-2.7136,-2.72,-2.7236,-2.7276,-2.7331,-2.7347,-2.7411,-2.7469,-2.7521,-2.7598,-2.7624,-2.7681,-2.7693,-2.766,-2.7665,-2.7681,-2.7679,-2.7727,-2.7736,-2.7722,-2.7722,-2.7722,0,-2.6905,-2.694,-2.7019,-2.7051,-2.7087,-2.7138,-2.7175,-2.7226,-2.7263,-2.7334,-2.7361,-2.7422,-2.7474,-2.7565,-2.7619,-2.7678,-2.7691,-2.7704,-2.77,-2.7686,-2.769,-2.7687,-2.7691,-2.7703,-2.7703,-2.7703,-2.7703,0,-2.6926,-2.6949,-2.7001,-2.7061,-2.7103,-2.7153,-2.7205,-2.7229,-2.729,-2.7329,-2.7389,-2.7429,-2.7508,-2.7568,-2.7633,-2.7671,-2.7697,-2.7704,-2.7711,-2.7698,-2.7677,-2.7688,-2.7659,-2.7702,-2.7702,-2.7702,-2.7703,-2.7703,-2.6933,-2.6966,-2.7026,-2.7082,-2.7126,-2.7173,-2.721,-2.7254,-2.7305,-2.7373,-2.74,-2.7461,-2.752,-2.7611,-2.7649,-2.7697,-2.7702,-2.7713,-2.7715,-2.7717,-2.7714,-2.767,-2.7709,-2.7709,-2.7709,-2.771,-2.771,0,-2.6955,-2.6996,-2.7047,-2.7116,-2.716,-2.7181,-2.7238,-2.7274,-2.7326,-2.7379,-2.7429,-2.7498,-2.7556,-2.7614,-2.7675,-2.7703,-2.7716,-2.7717,-2.7715,-2.7723,-2.7707,-2.7694,-2.7705,-2.7705,-2.7705,-2.7705,-2.7705,-2.7705,-2.6972,-2.7029,-2.7059,-2.7138,-2.7178,-2.7237,-2.7268,-2.7312,-2.7354,-2.7429,-2.7477,-2.7514,-2.7569,-2.7635,-2.7689,-2.7705,-2.7725,-2.7723,-2.7741,-2.7725,-2.7724,-2.7724,-2.7712,-2.7727,-2.7727,-2.7753,-2.7754,-2.7754]},{"header":{"parameterUnit":"m.s-1","parameterCategory":1,"la1":30.2991,"la2":30.254,"lo1":-89.0895,"lo2":-89.0444,"dy":0.0017,"dx":0.0017,"nx":28,"ny":28,"refTime":"2024-11-24T09:00:00:Z","depth":0,"parameterNumber":3,"parameterNumberName":"V-component_of_WINDS"},"data":[0,0,0,0,0,0,0,0,0,0,0,0,0,0,0,0,0,0,0,0,0,0,0,0,0,0,0,0,0,0,0,0,0,0,0,0,0,0,0,0,0,0,0,0,0,0,0,0,0,0,0,0,0,0,0,0,0,0,2.7016,2.7016,0,2.7044,2.7044,2.7044,2.7081,2.7082,2.7082,2.7083,2.7106,2.7106,2.7106,0,0,0,0,0,0,0,0,0,0,0,0,0,2.699,2.6991,2.7016,2.7016,2.7016,2.7044,2.7044,2.7045,2.7081,2.7082,2.7082,2.7083,2.7106,2.7106,2.7106,0,0,0,0,0,0,0,0,0,0,0,0,0,2.7008,2.6991,2.7016,2.7038,2.704,2.7044,2.7044,2.7045,2.7081,2.7082,2.7083,2.7083,2.7106,2.7106,2.7106,2.7088,0,0,2.7106,2.7106,0,0,0,0,0,0,0,0,2.7007,2.7009,2.7034,2.7037,2.7039,2.706,2.7044,2.7059,2.708,2.7065,2.7083,2.7084,2.709,2.7091,2.7094,2.7089,2.709,2.7106,2.7106,2.7107,2.7107,0,0,0,0,0,0,0,2.7006,2.7008,2.7027,2.7035,2.7038,2.7046,2.7049,2.7047,2.7072,2.7067,2.7069,2.7072,2.7091,2.7094,2.7095,2.7091,2.7106,2.7106,2.7107,2.7107,2.7075,2.7074,0,0,0,0,0,0,2.7002,2.7007,2.7026,2.7028,2.7025,2.7045,2.7049,2.7052,2.7072,2.7076,2.7072,2.7074,2.7093,2.7095,2.7096,2.7078,2.7107,2.7107,2.7107,2.7076,2.7075,2.7074,0,0,0,0,0,0,2.7001,2.7003,2.7025,2.7018,2.7021,2.7045,2.7048,2.7052,2.7055,2.7076,2.708,2.707,2.7094,2.7096,2.7091,2.7079,2.7107,2.7107,2.7077,2.7076,2.7074,2.7041,0,0,0,0,0,0,2.7,2.7003,2.6997,2.7018,2.7022,2.702,2.7047,2.7052,2.7056,2.706,2.7076,2.7079,2.7095,2.7091,2.7091,2.708,2.7107,2.7078,2.7076,2.7075,2.7043,2.7039,2.7035,0,0,0,0,0,2.6999,2.6984,2.6996,2.6998,2.7015,2.7019,2.7021,2.7042,2.7055,2.7049,2.7063,2.7079,2.7081,2.709,2.709,2.7079,2.7079,2.7077,2.7075,2.7045,2.7039,2.7035,0,0,0,0,0,0,2.6959,2.6988,2.7001,2.6993,2.7004,2.7025,2.7018,2.7035,2.704,2.7043,2.7066,2.707,2.7062,2.707,2.708,2.7064,2.7082,2.708,2.7059,2.7054,2.705,2.7048,2.7107,0,0,0,0,0,2.695,2.6952,2.6976,2.6967,2.6972,2.6994,2.6997,2.7012,2.7023,2.7027,2.704,2.7049,2.7053,2.7054,2.7057,2.7045,2.7049,2.7037,2.7033,2.703,2.7028,2.7023,2.7019,2.7067,2.7067,2.7067,0,0,2.6929,2.6945,2.6945,2.6959,2.697,2.6971,2.6998,2.6997,2.6999,2.7027,2.7024,2.7034,2.7046,2.7037,2.7034,2.7044,2.7015,2.7027,2.7024,2.7024,2.7021,2.7016,2.7012,2.7066,2.7066,2.7066,0,0,2.6894,2.6906,2.6901,2.6911,2.6927,2.6943,2.6941,2.6961,2.697,2.6968,2.699,2.6991,2.6994,2.7003,2.7008,2.6978,2.6994,2.6978,2.6956,2.6952,2.6948,2.6945,2.6935,2.6931,2.6976,2.6976,2.6976,0,2.6866,2.6871,2.6895,2.6895,2.6901,2.6929,2.6924,2.6932,2.6947,2.695,2.6961,2.6969,2.6978,2.6974,2.6967,2.6969,2.6968,2.6976,2.6947,2.6944,2.6941,2.6932,2.6929,2.6974,2.6974,2.6975,2.6975,0,2.6837,2.684,2.6833,2.6851,2.6856,2.6853,2.6876,2.6878,2.6893,2.6907,2.6905,2.6918,2.6926,2.6926,2.6939,2.6923,2.6929,2.6943,2.6962,2.6934,2.6927,2.6923,2.6972,2.6972,2.6973,2.6973,0,0,2.6776,2.6809,2.6806,2.6815,2.6836,2.6838,2.6837,2.6847,2.6849,2.6859,2.6858,2.6862,2.6876,2.6882,2.6896,2.6892,2.687,2.6907,2.6908,2.6901,2.6855,2.6845,2.684,2.6881,2.688,2.688,2.6854,0,2.6745,2.6746,2.6769,2.6763,2.6766,2.6794,2.6793,2.6805,2.6819,2.6823,2.6837,2.684,2.6858,2.6862,2.6859,2.6873,2.6861,2.6875,2.688,2.688,2.6877,2.6836,2.6825,2.6801,2.6851,2.6851,2.685,0,2.6709,2.672,2.6715,2.6739,2.6741,2.674,2.6752,2.6756,2.677,2.678,2.6788,2.6806,2.6805,2.6823,2.6823,2.6832,2.6836,2.6843,2.6843,2.6844,2.6864,2.6837,2.6793,2.679,2.6846,2.6846,2.6846,0,2.6666,2.668,2.668,2.6686,2.6713,2.6712,2.6723,2.6739,2.6744,2.6754,2.6758,2.6766,2.6771,2.6778,2.6797,2.6808,2.6795,2.6814,2.6804,2.6803,2.68,2.68,2.6756,2.68,2.6801,2.6801,2.6801,0,2.663,2.6626,2.6661,2.6661,2.6658,2.6684,2.668,2.6693,2.6707,2.671,2.6733,2.6735,2.676,2.6765,2.678,2.6778,2.678,2.6788,2.6792,2.6786,2.6785,2.6789,2.6791,2.68,2.68,2.68,2.68,0,2.6582,2.6605,2.6607,2.6633,2.664,2.6637,2.6659,2.6659,2.6675,2.6678,2.668,2.6704,2.6711,2.6731,2.6742,2.6752,2.6746,2.6754,2.6742,2.6745,2.6734,2.6735,2.6691,2.6687,2.6733,2.6733,2.6732,0,2.6557,2.6556,2.6583,2.6588,2.6598,2.6604,2.6611,2.6636,2.6642,2.666,2.6659,2.6668,2.6676,2.6685,2.6703,2.6712,2.672,2.6704,2.6721,2.6716,2.6721,2.6721,2.6722,2.67,2.67,2.6699,2.6699,0,2.6512,2.6525,2.6534,2.6548,2.6555,2.6567,2.658,2.6581,2.661,2.6615,2.6624,2.663,2.6643,2.6652,2.6664,2.6674,2.6691,2.6694,2.6692,2.6686,2.668,2.6685,2.6733,2.6694,2.6695,2.6695,2.6695,2.6695,2.6476,2.6477,2.6497,2.6507,2.652,2.6532,2.6535,2.6552,2.656,2.6574,2.6588,2.6595,2.6611,2.663,2.6639,2.6644,2.6653,2.665,2.665,2.6649,2.6647,2.6679,2.6646,2.6646,2.6647,2.6647,2.6647,0,2.6433,2.6448,2.6457,2.6476,2.6484,2.6502,2.6517,2.6522,2.6529,2.6544,2.6553,2.6563,2.6572,2.6592,2.6602,2.6603,2.6611,2.6605,2.6605,2.6608,2.6637,2.6638,2.6598,2.6598,2.6598,2.6598,2.6598,2.6598,2.6412,2.6415,2.643,2.6439,2.6454,2.6463,2.647,2.6482,2.6494,2.6505,2.6514,2.6527,2.6544,2.6557,2.6566,2.6571,2.6574,2.6566,2.6574,2.6601,2.6605,2.661,2.6611,2.6566,2.6566,2.6544,2.6544,2.6544]}]]